Location: Newark
(41.6500°N, 71.4833°W)
Time: 20:49:45
(UTC+00:00)

deb Explorer IX - Pass Details

Date: 27 January 2020
Orbit: 549 x 1099 km, 38.8° (Epoch: 21 February)

Event Time Altitude Azimuth Distance (km) Brightness Sun altitude
Rises 01:49:20 0° 235° (SW) 3,645 ? -43.8°
Reaches altitude 10° 01:51:57 10° 229° (SW) 2,767 ? -44.3°
Enters shadow 01:51:58 10° 229° (SW) 2,762 ? -44.3°
Maximum altitude 01:58:27 48° 158° (SSE) 1,370 - -45.5°
Drops below altitude 10° 02:05:23 10° 87° (E) 2,949 - -46.7°
Sets 02:08:16 0° 82° (E) 3,905 - -47.2°
